SL-16 DEB, 29100

Orbit data source: Space-Track

SL-16 DEB, 29100 is space debris in LEO originally from a launch on Fri, 26 Mar 1993 UTC launched from the Tyuratam Missile And Space Complex (TTMTR). Debris objects in space refer to the collection of defunct objects orbiting the Earth. Examples of debris include non-operational satellites, rocket bodies, and fragments generated from explosions, collisions, or faulty payload assembly.

Loading next visibility...
Identifier
29100, 1993-016AP
Orbit
LEO
Country
Flag of CISCIS
Related business
Manufacturer
Unknown
Mission
Spacecraft
Bus & Motor
Unknown
Mass
Unknown
Launch date (UTC)
1993-03-26 (33 years ago)
Launch vehicle
Unknown
Launch site
Tyuratam Missile And Space Complex (TTMTR)
Object type
Payload
Rocket body
Debris
Shape & HBR
Unknown shape, 0.1 m
Radar Cross Section
Small (<0.1 m²)

Expand to show TLE details & history
Last TLE update: 2 months ago

TLE from 2 months ago
0 SL-16 DEB
1 29100U 93016AP  25351.95795512  .00000774  00000-0  43865-3 0  9997
2 29100  70.7249  96.9586 0073282 341.1138  18.7265 14.11954309205833
Epoch: 2025-12-17T22:59Z
TLE epoch observation values (Epoch: 2025-12-17T22:59:27.322Z)
Latitude
0.00003°
Longitude
25.27442°
Altitude
804.92 km
Speed
7.477 km/s
True Right ascension
06h 27m 50s
True Declination
0° 00' 00"
Sunlit
Object was in full shadow at epoch
Visualization orbit readout
Latitude
Unknown
Longitude
Unknown
Altitude
Unknown
Speed
Unknown
Apparent Right ascension
Unknown
Apparent Declination
Unknown
Sunlit
N/A
Visualization observer readout
Local Sidereal Time
17:12:02
Azimuth
Unknown
Elevation
Unknown
Doppler factor
Unknown
Orbital elements
Apogee altitude
903.621 km
Perigee altitude
797.673 km
Semi-major axis
7,228.784 km
Eccentricity
0.00733
Inclination
70.7249°
RAAN
96.9586°
Arg. of periapsis
341.1138°
True anomaly
18.99846°
Mean anomaly
18.7265°
Eccentric anomaly
18.86224°
Mean motion
3.53139 °/min
Orbital period
101.94 mins
BSTAR
0.00043865
Loading maneuver chart data...
Computing Atmospheric mass density...
Loading historical data...
Loading historical data...
Loading historical data...
Loading historical data...
Loading historical data...
Loading historical data...
Loading historical data...

Documentation

Showing up to 5 results
|